Temp_Advection
nan nan nan nan nan nan nan nan nan nan nan nan nan nan nan nan nan nan nan nan nan nan nan nan nan nan nan nan nan nan nan nan nan nan nan nan nan nan nan nan nan nan nan
nan 0 0 -0 0 -0 0 0 0 0 0 0 0 0 -0 0 0 -0 0 -0 -0 -0 -0 -0 0 0 0 -0 -0 0 0 0 -0 -0 -0 0 0 0 -0 -0 0 0 nan
nan 0 -0 0 0 0 -0 0 0 0 0 0 0 0 -0 -0 -0 -0 -0 -0 -0 -0 0 -0 -0 0 0 -0 -0 0 0 0 -0 -0 -0 0 -0 0 0 -0 0 -0 nan
nan 0 -0 0 0 0 0 -0 0 0 0 0 0 0 -0 0 0 0 -0 -0 -0 -0 -0 -0 -0 -0 0 0 -0 -0 -0 -0 -0 -0 -0 -0 -0 0 -0 -0 -0 -0 nan
nan 0 0 -0 0 0 0 0 -0 0 0 -0 -0 0 0 0 -0 0 0 0 0 0 0 -0 -0 -0 -0 0 0 0 -0 -0 -0 -0 0 0 -0 -0 -0 -0 -0 -0 nan
nan 0 0 0 0 0 0 0 -0 -0 -0 -0 0 0 0 -0 0 0 0 0 0 0 0 0 -0 0 -0 -0 -0 0 0 -0 0 0 0 -0 -0 -0 -0 -0 -0 -0 nan
nan 0 0 -0 -0 -0 -0 -0 -0 -0 -0 0 0 0 0 0 0 -0 0 0 0 0 0 0 0 0 0 0 -0 -0 -0 -0 0 0 0 -0 -0 -0 -0 0 -0 -0 nan
nan 0 -0 -0 -0 -0 -0 0 0 0 0 0 0 0 0 0 0 0 0 0 0 0 0 0 0 0 0 0 0 -0 -0 -0 0 0 -0 -0 0 0 -0 0 0 -0 nan
nan 1 0 0 0 0 0 0 0 0 0 0 0 0 0 0 0 0 0 0 0 0 0 0 0 0 0 0 0 0 0 0 0 0 0 0 -0 -0 0 -0 0 0 nan
nan 0 0 0 0 0 0 0 0 0 0 0 0 0 0 0 0 0 0 0 0 0 0 0 0 0 0 0 0 0 0 0 -0 -0 -0 -0 0 -0 -0 -0 0 0 nan
nan -0 0 0 0 0 0 0 0 0 0 0 0 0 0 0 0 0 0 0 0 0 -0 -0 -0 -0 -0 -0 -0 0 -0 -0 -0 -0 -0 0 0 0 0 -0 -0 -0 nan
nan -0 0 0 0 0 0 0 0 0 0 0 0 0 0 0 0 0 0 0 0 0 0 0 0 -0 -0 -0 -0 -0 -0 -0 -0 -0 -0 -0 0 0 0 -0 -0 -0 nan
nan -0 0 0 0 0 0 0 0 0 0 0 0 0 0 0 0 0 0 0 0 0 0 0 -0 -0 -0 -0 -0 -0 0 0 -0 -0 -0 -0 -0 -0 -0 -0 -0 -0 nan
nan 0 0 0 0 0 0 0 0 0 0 0 0 0 0 0 0 0 0 0 0 0 -0 -0 -0 -0 -0 -0 -0 -0 -0 -0 -0 -0 -0 -0 -0 0 0 0 -0 -0 nan
nan 1 0 0 0 0 0 0 0 0 0 0 0 0 0 0 0 0 0 0 0 -0 -0 -0 -0 -0 -0 -0 -0 -0 -0 -0 -0 -0 -0 -0 -0 0 0 0 1 0 nan
nan 0 0 1 1 0 0 0 0 0 0 0 0 0 0 0 0 0 0 0 -0 -0 -0 -0 -0 -0 -0 -0 -0 -0 -0 -0 -0 -0 -0 -0 -0 -0 0 0 0 0 nan
nan 1 1 1 0 0 1 0 0 0 0 0 0 0 0 0 0 0 0 0 -0 -0 -0 -0 -0 -0 -0 -0 -0 -0 -0 -0 -0 -0 -0 -0 0 -0 -0 0 0 0 nan
nan 1 1 0 0 1 1 1 1 1 0 0 0 0 0 0 0 0 0 0 -0 -0 -0 -0 -0 -0 -0 -0 -0 -0 -0 -0 -0 0 0 -0 -0 -0 -0 -0 -0 -0 nan
nan 1 1 0 1 1 1 1 1 0 1 0 0 0 0 0 0 0 0 0 0 -0 -0 -0 -0 -0 -0 -0 -0 -0 -0 -0 0 0 0 0 -0 -0 -0 -0 -0 -0 nan
nan 1 1 2 1 1 1 1 1 0 0 0 0 0 0 0 0 0 0 0 -0 -0 -0 -0 -0 -1 -1 -0 -0 -0 -0 -0 0 0 0 -0 -0 0 -0 -0 -0 -0 nan
nan 2 2 1 1 1 1 1 0 -0 0 1 1 1 0 0 0 0 0 0 -0 -0 -0 -0 -0 -1 -1 -1 -1 -0 -0 -0 0 0 -0 -0 -0 -0 -0 -0 -0 -0 nan
nan 1 1 1 1 1 1 0 0 1 1 1 0 0 0 0 0 0 0 0 0 -0 -0 -0 -0 -0 -1 -1 -1 -1 -0 -0 0 -0 -0 -0 -0 -0 -0 -0 -0 -0 nan
nan 1 1 1 1 1 1 1 1 1 0 -0 -0 0 0 0 0 0 0 0 0 -0 -0 -0 -0 -1 -1 -1 -1 -1 -0 -0 -2 -0 -0 -0 -1 -1 -0 -1 -0 0 nan
nan 1 1 1 1 1 1 0 0 0 -0 0 0 0 0 0 0 0 0 0 -0 -0 -0 -0 -0 -0 -0 -0 -1 -1 -0 0 -0 -2 -2 -1 -0 -1 -1 -1 -1 -0 nan
nan 2 2 2 1 1 1 1 1 1 1 1 1 0 0 0 0 0 0 0 -0 -0 -0 -0 -0 -0 -0 -0 -0 -0 -0 -0 0 0 -4 -6 -3 -1 -0 -0 -0 0 nan
nan nan nan nan nan nan nan nan nan nan nan nan nan nan nan nan nan nan nan nan nan nan nan nan nan nan nan nan nan nan nan nan nan nan nan nan nan nan nan nan nan nan nan
Wind_Speed
11 12 11 8 9 11 18 16 15 16 16 17 16 17 17 17 17 17 17 17 16 15 17 18 17 14 14 14 14 14 15 15 14 14 12 11 9 8 9 10 10 12 12
12 12 10 8 8 11 20 18 18 19 18 16 18 19 17 16 15 13 13 13 15 16 16 16 15 12 11 13 13 13 13 12 13 12 12 12 10 8 7 7 7 8 10
16 12 8 10 9 13 19 24 22 23 23 18 17 16 13 10 8 8 8 8 7 8 10 10 10 12 12 11 11 12 10 10 9 9 9 9 10 11 8 6 5 5 5
10 9 8 21 7 16 20 26 25 19 16 13 11 10 8 7 6 5 6 6 6 5 4 6 8 10 10 10 9 8 6 6 6 6 7 8 8 7 6 8 6 4 3
9 10 9 13 13 11 11 10 8 9 8 7 6 6 5 5 6 7 7 8 8 7 6 6 6 7 8 8 8 7 6 7 7 7 8 8 9 10 7 4 3 5 6
14 15 13 14 12 11 11 10 8 10 9 7 5 5 5 6 6 7 7 8 7 7 7 7 6 6 6 6 6 7 7 5 4 3 5 6 12 9 9 8 5 3 3
16 12 11 14 15 15 13 13 12 10 9 6 6 6 5 6 5 5 5 5 5 5 5 5 5 5 4 4 5 5 5 5 4 3 2 1 4 5 3 4 3 4 3
20 18 16 15 14 15 14 12 10 8 7 6 5 5 5 5 5 5 4 4 3 2 2 2 2 2 2 2 3 3 4 5 6 5 4 5 6 7 7 3 4 4 3
21 18 16 15 15 14 13 11 9 8 7 5 4 4 4 4 4 4 4 3 3 3 2 2 1 1 1 1 2 3 4 5 6 7 9 9 10 11 12 12 10 9 10
22 21 20 18 17 16 15 13 11 9 7 6 5 5 4 5 4 3 2 2 1 1 1 1 1 1 1 1 2 3 4 6 8 9 10 10 11 13 14 13 12 11 12
24 23 22 21 19 16 15 13 11 9 7 7 7 7 6 5 4 3 3 3 1 1 1 1 1 1 1 2 2 3 5 7 9 10 12 12 13 14 16 16 16 16 15
29 27 24 21 20 18 16 13 12 11 9 7 7 7 6 5 4 4 4 3 3 2 2 1 1 1 2 3 4 5 7 8 10 10 13 13 14 15 17 17 17 17 17
29 27 25 24 22 19 17 14 13 11 10 9 9 9 8 7 7 7 5 5 5 4 2 1 2 3 4 5 6 7 8 9 11 12 14 14 15 17 18 19 20 19 19
32 29 27 25 22 21 18 15 13 11 11 11 11 10 9 8 7 6 5 5 3 3 2 3 4 5 6 7 7 7 8 8 9 11 12 13 15 16 17 17 18 18 19
37 33 31 29 26 23 19 17 15 13 13 13 12 11 10 9 8 7 6 5 4 3 3 5 5 6 6 7 8 8 8 9 9 10 11 12 13 14 14 16 12 9 11
37 35 33 30 27 25 22 19 17 16 16 15 13 12 11 10 8 8 6 4 4 4 4 5 6 6 7 8 8 8 9 10 9 9 8 9 9 9 9 11 9 10 9
39 35 34 32 30 27 24 21 19 18 18 16 14 13 11 10 9 8 7 6 5 5 5 6 7 8 8 9 9 9 9 8 7 7 8 9 9 10 12 13 14 15 15
39 38 35 34 32 29 26 23 22 21 19 17 16 14 12 10 9 8 7 6 6 5 5 6 7 8 10 10 10 10 10 8 8 9 10 9 8 9 9 10 12 15 17
41 40 39 37 34 30 27 23 22 21 19 18 17 15 13 12 11 10 9 7 5 5 6 8 10 11 12 11 11 11 11 9 9 8 7 6 7 12 17 19 19 18 19
43 42 41 39 36 32 29 28 27 25 23 21 19 17 15 13 11 9 7 5 5 6 8 10 11 13 14 15 15 14 10 9 8 6 5 8 17 18 16 16 18 20 23
44 45 43 41 39 37 35 33 30 28 26 23 21 17 14 12 10 8 6 6 6 7 9 10 12 13 15 16 15 15 8 6 5 6 8 19 14 17 17 24 23 26 27
47 46 45 43 41 39 36 32 30 29 27 22 19 17 14 12 11 9 8 7 7 8 10 11 13 14 15 16 16 14 5 8 6 8 26 15 14 21 24 23 26 25 26
50 50 48 46 43 39 36 33 31 29 27 25 23 19 16 14 12 10 9 7 8 8 10 12 13 13 13 14 14 10 7 4 23 7 19 15 28 22 27 27 25 25 26
53 50 48 46 43 40 38 37 36 35 32 27 22 20 17 14 12 10 9 8 9 9 11 11 11 12 12 13 13 13 11 13 9 13 18 33 26 33 31 28 27 25 25
53 54 51 48 45 42 40 38 35 32 27 24 23 20 17 15 13 11 10 9 10 10 11 11 10 11 12 13 12 12 13 14 13 14 27 35 38 35 33 32 30 28 26
48 52 51 48 45 42 40 38 34 31 28 25 23 21 18 16 14 12 10 10 10 11 10 10 10 11 11 12 12 13 14 15 18 17 25 32 33 36 37 31 29 26 26
Wind_Direction
177 179 176 203 208 189 193 170 150 143 139 135 132 124 116 110 109 104 98 91 87 84 83 74 70 80 86 94 95 91 91 87 82 81 78 74 74 76 78 82 83 81 82
151 172 178 184 186 180 174 160 155 148 138 133 125 124 124 126 122 111 109 106 99 93 91 89 90 81 105 105 97 89 95 93 86 75 67 69 71 75 73 73 73 72 68
140 139 189 185 191 161 174 171 134 125 124 128 135 135 134 131 127 129 122 116 112 106 96 99 92 86 101 116 113 105 98 83 75 67 52 47 45 51 62 67 78 76 66
178 137 216 161 126 93 117 107 124 126 135 141 131 131 136 132 133 131 125 122 126 128 116 103 95 94 98 104 123 122 112 93 73 53 47 33 18 27 31 47 54 51 42
166 152 152 135 149 135 113 132 138 154 168 187 163 146 133 128 117 109 109 112 120 126 126 125 123 117 110 112 112 120 113 106 101 94 76 61 44 20 9 3 20 48 33
182 156 174 184 186 174 181 195 176 166 174 170 154 136 124 116 113 114 114 109 108 109 110 105 107 112 121 131 125 128 136 123 110 100 74 72 75 45 35 21 355 338 360
180 184 208 182 183 189 186 167 166 165 166 163 150 139 138 134 129 121 118 117 120 119 112 118 120 119 115 121 137 159 164 173 175 172 157 127 98 66 49 37 36 25 301
180 184 187 176 169 167 168 169 166 173 170 166 164 155 158 154 164 158 159 153 150 144 147 155 148 148 151 156 162 171 194 206 217 222 236 244 256 278 281 317 312 323 313
177 182 185 181 175 174 174 174 184 192 185 190 190 193 182 193 189 188 181 180 181 171 175 175 170 156 194 201 205 220 231 243 251 246 251 254 255 269 280 289 283 284 295
184 181 188 187 189 187 188 187 196 203 203 201 216 213 210 205 205 203 194 195 199 178 203 168 168 171 191 215 228 236 253 259 263 264 262 265 270 273 278 281 282 281 282
193 189 188 191 192 195 194 196 200 207 218 210 215 210 205 209 212 218 210 213 215 237 277 306 305 290 309 296 276 273 268 269 271 275 277 277 275 279 284 288 289 286 280
196 195 195 197 195 196 198 200 208 212 212 214 213 214 212 215 215 216 218 218 224 229 228 227 253 314 333 310 307 295 287 279 278 275 276 280 281 280 280 282 284 286 288
199 200 198 200 202 200 204 208 207 210 212 214 218 215 212 215 219 220 218 219 216 214 203 202 259 276 277 276 279 274 270 271 273 271 269 268 270 273 277 284 287 290 290
206 206 204 206 208 206 207 208 214 218 217 216 216 215 214 217 221 225 224 223 217 217 239 278 284 296 304 307 305 303 301 299 294 293 287 284 279 279 281 281 281 284 280
209 207 208 209 211 212 211 214 218 218 214 215 216 217 213 218 222 221 221 222 228 251 275 297 308 317 321 322 323 321 321 316 310 301 296 290 286 282 277 278 281 292 289
210 211 212 213 213 213 214 216 217 214 215 214 214 219 220 220 224 224 223 230 253 272 294 307 321 331 334 334 331 329 326 322 315 305 298 299 296 293 285 276 279 284 295
213 212 212 211 212 213 214 216 217 214 212 213 218 221 217 219 223 226 232 242 261 285 308 323 329 337 333 327 326 324 321 314 305 297 295 289 284 278 275 276 281 287 296
216 214 214 213 212 212 213 213 213 211 213 216 217 220 221 223 225 229 236 249 267 288 303 319 320 325 324 323 326 322 319 310 298 297 291 285 287 289 290 290 291 295 293
218 216 215 215 214 213 212 212 211 213 213 215 216 218 221 221 223 226 234 246 267 298 324 327 331 328 326 326 330 329 321 307 296 279 263 276 294 308 301 294 292 294 295
218 217 217 214 211 210 211 210 209 209 210 213 215 217 217 218 221 225 237 263 298 321 328 328 327 325 325 331 335 335 321 309 292 263 266 303 304 305 308 309 307 303 302
218 216 214 212 209 210 208 206 206 208 210 212 211 213 214 218 223 232 248 268 292 307 312 319 323 326 326 328 333 342 327 325 286 260 310 320 317 306 312 314 313 313 310
219 215 215 213 212 210 212 210 212 212 211 211 210 211 215 220 226 236 249 267 286 303 315 319 322 329 336 340 349 347 343 313 258 281 290 294 308 311 315 316 316 315 312
220 217 215 214 213 213 210 208 208 209 208 207 209 213 215 220 227 237 250 265 283 299 310 317 324 330 338 345 351 3 345 320 311 300 295 302 314 317 318 320 319 317 314
222 219 218 215 213 212 210 210 213 214 211 213 214 214 216 220 227 237 251 267 284 299 308 313 321 329 336 339 342 343 334 317 322 311 306 314 316 320 321 324 323 320 320
223 220 217 214 213 212 211 212 213 215 218 216 212 213 216 222 230 241 254 269 286 298 303 308 317 322 325 329 331 330 324 318 311 301 306 313 313 319 321 324 324 324 320
224 220 216 212 211 210 210 211 213 214 213 213 213 215 218 224 233 244 258 272 285 292 296 302 310 314 317 320 325 324 319 314 309 301 298 305 309 316 318 319 319 318 318
Height
1515 1516 1519 1519 1519 1519 1520 1521 1521 1523 1523 1523 1524 1525 1526 1527 1526 1527 1526 1526 1527 1527 1526 1526 1525 1524 1524 1524 1523 1523 1524 1524 1524 1524 1524 1525 1525 1526 1526 1525 1525 1524 1525
1515 1516 1518 1519 1519 1518 1519 1519 1520 1522 1523 1526 1525 1524 1526 1526 1526 1527 1527 1526 1527 1527 1527 1526 1527 1526 1525 1525 1525 1525 1526 1526 1526 1527 1527 1527 1527 1527 1527 1527 1527 1527 1528
1514 1516 1518 1518 1517 1517 1518 1514 1517 1520 1522 1520 1523 1526 1527 1527 1527 1527 1527 1528 1528 1528 1527 1527 1528 1527 1527 1526 1526 1527 1527 1528 1528 1528 1528 1529 1529 1528 1528 1528 1528 1528 1528
1514 1516 1517 1514 1513 1511 1515 1509 1519 1521 1525 1527 1528 1528 1527 1527 1528 1528 1528 1529 1528 1528 1528 1528 1528 1528 1528 1528 1528 1528 1529 1529 1529 1529 1529 1529 1529 1530 1529 1529 1529 1529 1529
1513 1515 1515 1514 1517 1518 1515 1519 1522 1525 1526 1528 1528 1528 1527 1527 1528 1528 1529 1528 1529 1529 1529 1528 1529 1529 1529 1529 1529 1529 1530 1530 1530 1529 1529 1529 1530 1530 1530 1529 1529 1529 1529
1514 1515 1518 1517 1520 1520 1521 1524 1525 1527 1527 1528 1528 1527 1527 1527 1528 1528 1529 1529 1530 1529 1529 1529 1529 1529 1529 1529 1529 1529 1529 1530 1530 1530 1530 1530 1530 1531 1531 1530 1529 1529 1529
1513 1513 1518 1520 1520 1522 1519 1524 1525 1527 1527 1528 1528 1528 1528 1528 1528 1529 1530 1529 1529 1529 1529 1529 1530 1529 1529 1529 1529 1530 1529 1529 1530 1530 1530 1530 1530 1530 1529 1529 1528 1528 1528
1513 1514 1516 1520 1521 1522 1523 1524 1525 1526 1527 1527 1528 1528 1528 1529 1529 1529 1530 1530 1529 1529 1528 1529 1529 1529 1529 1529 1529 1529 1529 1529 1529 1530 1530 1530 1529 1528 1528 1529 1528 1528 1527
1513 1515 1517 1519 1520 1522 1523 1523 1524 1526 1526 1526 1528 1528 1528 1529 1529 1529 1530 1529 1529 1529 1530 1530 1530 1529 1529 1529 1528 1528 1528 1528 1528 1527 1528 1528 1528 1528 1527 1527 1527 1527 1526
1513 1514 1516 1518 1520 1522 1523 1523 1525 1526 1526 1526 1528 1528 1528 1529 1530 1529 1529 1528 1529 1528 1530 1529 1529 1529 1529 1528 1527 1527 1527 1527 1527 1526 1526 1526 1526 1526 1526 1525 1525 1524 1525
1511 1513 1515 1517 1518 1520 1522 1523 1525 1525 1526 1526 1528 1529 1528 1529 1529 1528 1528 1529 1528 1528 1528 1528 1528 1528 1527 1528 1527 1527 1527 1526 1526 1526 1525 1524 1524 1523 1524 1523 1523 1523 1522
1507 1510 1512 1514 1516 1519 1520 1522 1523 1525 1525 1524 1527 1528 1528 1528 1528 1528 1528 1527 1526 1527 1527 1527 1528 1527 1526 1526 1526 1526 1525 1525 1525 1524 1524 1521 1521 1520 1521 1520 1521 1520 1520
1505 1507 1510 1513 1515 1518 1520 1521 1522 1523 1523 1524 1526 1527 1527 1527 1528 1528 1526 1527 1527 1526 1526 1526 1527 1526 1525 1525 1525 1525 1524 1523 1522 1521 1522 1519 1518 1518 1519 1519 1518 1518 1518
1501 1504 1507 1510 1513 1516 1518 1519 1521 1520 1521 1522 1524 1525 1525 1525 1526 1526 1525 1526 1525 1525 1524 1525 1524 1525 1523 1522 1522 1521 1520 1519 1518 1517 1517 1516 1515 1515 1516 1516 1516 1515 1513
1498 1501 1504 1507 1511 1514 1514 1516 1517 1518 1520 1521 1523 1523 1524 1524 1525 1524 1525 1524 1524 1524 1522 1523 1522 1522 1520 1521 1520 1519 1518 1517 1515 1515 1513 1511 1511 1512 1513 1512 1511 1510 1509
1494 1497 1501 1504 1507 1510 1512 1514 1516 1517 1518 1520 1521 1523 1522 1523 1522 1523 1523 1522 1522 1522 1520 1521 1521 1519 1518 1518 1518 1516 1515 1514 1512 1512 1510 1508 1508 1509 1508 1507 1506 1506 1506
1490 1494 1496 1501 1503 1506 1509 1511 1512 1514 1516 1518 1519 1520 1520 1520 1521 1521 1520 1521 1521 1519 1519 1518 1518 1515 1516 1516 1516 1514 1513 1512 1511 1509 1507 1507 1507 1506 1505 1504 1504 1504 1503
1486 1488 1493 1495 1499 1502 1504 1507 1509 1512 1513 1515 1517 1519 1519 1518 1519 1519 1519 1520 1519 1517 1517 1515 1515 1513 1513 1514 1513 1511 1510 1509 1507 1506 1504 1504 1504 1503 1503 1501 1500 1500 1500
1479 1483 1486 1490 1494 1497 1500 1503 1506 1508 1510 1513 1515 1516 1516 1517 1518 1518 1519 1518 1517 1515 1513 1513 1511 1510 1510 1511 1509 1507 1506 1504 1503 1503 1502 1502 1501 1501 1500 1498 1497 1496 1495
1472 1477 1481 1485 1488 1492 1495 1499 1503 1506 1509 1512 1512 1513 1514 1515 1516 1516 1516 1515 1513 1512 1511 1509 1508 1508 1508 1506 1504 1503 1501 1500 1500 1500 1500 1500 1499 1497 1495 1494 1493 1492 1491
1465 1469 1473 1478 1482 1485 1488 1493 1498 1502 1505 1507 1509 1510 1511 1512 1512 1513 1512 1512 1511 1510 1509 1507 1507 1505 1503 1502 1501 1499 1498 1497 1498 1497 1497 1497 1496 1494 1492 1490 1488 1486 1484
1456 1462 1467 1472 1476 1480 1485 1490 1495 1499 1501 1504 1506 1507 1508 1508 1509 1509 1509 1509 1508 1507 1506 1505 1504 1502 1500 1499 1497 1495 1495 1496 1495 1495 1494 1494 1493 1491 1488 1486 1484 1481 1478
1448 1453 1459 1466 1471 1476 1482 1487 1491 1494 1497 1498 1501 1503 1505 1505 1506 1506 1506 1506 1506 1505 1504 1503 1501 1499 1498 1497 1496 1497 1494 1494 1492 1489 1490 1489 1487 1485 1483 1481 1479 1476 1473
1438 1447 1454 1460 1466 1471 1476 1480 1484 1487 1490 1494 1497 1499 1501 1503 1503 1503 1503 1503 1503 1502 1501 1500 1499 1497 1495 1494 1494 1494 1494 1494 1492 1484 1482 1481 1478 1478 1476 1475 1473 1471 1467
1430 1436 1445 1453 1460 1466 1470 1474 1479 1485 1490 1492 1493 1496 1498 1500 1501 1501 1501 1501 1500 1499 1498 1498 1497 1496 1494 1493 1492 1491 1491 1490 1489 1487 1477 1474 1472 1472 1469 1468 1467 1465 1462
1425 1433 1441 1448 1454 1460 1466 1471 1476 1481 1485 1488 1491 1493 1495 1496 1497 1498 1498 1498 1497 1497 1496 1495 1495 1494 1493 1491 1489 1488 1487 1487 1485 1483 1478 1473 1469 1464 1462 1464 1462 1461 1458